Regional & State Weather Roundups


869 
ASUS41 KCLE 200312
RWRCLE
OHIO REGIONAL WEATHER ROUNDUP
NATIONAL WEATHER SERVICE WILMINGTON, OH
1000 PM EST MON FEB 19 2018
NOTE: "FAIR" INDICATES FEW OR NO CLOUDS BELOW 12,000 FEET WITH NO
SIGNIFICANT WEATHER AND/OR OBSTRUCTIONS TO VISIBILITY.
OHZ001>008-015>018-024>027-034-035-043-044-200400-
   NORTHWEST OHIO
  
CITY           SKY/WX    TMP DP  RH WIND       PRES   REMARKS
DEFIANCE       LGT RAIN  57  55  93 S7        29.97F                  
FINDLAY        CLOUDY    60  54  80 SW8       30.01R                  
TOLEDO EXPRESS LGT RAIN  58  58 100 S8        29.98F                  
TOLEDO EXEC    CLOUDY    57  55  93 S8        30.00F                  
LIMA           CLOUDY    62  56  80 S12       30.01S                  
$$
 
OHZ009>014-019>023-028>033-038-089-200400-
   NORTHEAST OHIO
  
CITY           SKY/WX    TMP DP  RH WIND       PRES   REMARKS
CLE-HOPKINS    CLOUDY    65  56  72 S15G24    30.04S                  
CLE-LAKEFRONT  MOCLDY    65  55  70 S20G30    30.00R                  
CUY CO. ARPT   MOCLDY    66  57  72 S14G26    30.03S                  
LORAIN-ELYRIA  CLOUDY    63  52  67 SW10G22   30.02R                  
ASHTABULA      FAIR      58  56  93 S10       30.05S                  
AKRON-CANTON   CLOUDY    63  54  72 S16       30.08S                  
WOOSTER        FAIR      61  55  81 S13       30.08R                  
MANSFIELD      FAIR      63  56  78 S20G28    30.06S                  
YOUNGSTOWN     CLOUDY    61  55  81 S10       30.07R                  
$$
 
OHZ042-051>053-060>062-070>072-077>081-200400-
  SOUTHWEST OHIO
  
CITY           SKY/WX    TMP DP  RH WIND       PRES   REMARKS
CINC-COVINGTON FAIR      65  56  72 S14       30.08S                  
CINC-LUNKEN    FAIR      66  56  70 S13       30.09S                  
HAMILTON       FAIR      68  55  63 S8        30.08R                  
DAYTON         MOCLDY    64  57  78 S20G25    30.06S                  
WRIGHT-PAT AFB FAIR      65  55  68 S16G23    30.06S                  
DAYTON GENERAL FAIR      65  55  70 S15       30.07R                  
WILMINGTON     FAIR      63  55  75 S16       30.09S                  
$$
OHZ036-037-039>041-045>050-054>059-063>069-073>076-082>088-200400-
  CENTRAL AND SOUTHEAST OHIO
  
CITY           SKY/WX    TMP DP  RH WIND       PRES   REMARKS
COLUMBUS       FAIR      66  56  70 S12       30.09S                  
OSU AIRPORT    FAIR      64  57  78 S12       30.08S                  
BOLTON FIELD   FAIR      63  55  75 S13       30.09F                  
RICKENBACK AFB FAIR      63  56  78 S10G17    30.09S                  
NEWARK         FAIR      61  53  75 S6        30.09S                  
MARION         FAIR      63  55  75 S18G29    30.06R                  
LANCASTER      FAIR      64  54  69 S8        30.11S                  
ZANESVILLE     FAIR      66  53  63 SW9       30.12R                  
NEW PHILLY     FAIR      65  54  67 S8        30.11S                  
$$